Kahului, HI

11:39 PM HST on July 24, 2017 (GMT -1000)
Kahului

Weather History for PHOG - June, 2012

Change the Weather History Date:

Sunday, June 3, 2012

  Actual Average Record
Temperature  
Mean Temperature 78 °F 77 °F  
Max Temperature 84 °F 86 °F 92 °F (1953)
Min Temperature 71 °F 69 °F 59 °F (1985)
Degree Days  
Heating Degree Days 0 0  
Month to date heating degree days 0 0  
Since 1 June heating degree days 0 0  
Since 1 July heating degree days 0 0  
Cooling Degree Days 13 12  
Month to date cooling degree days 35 36  
Year to date cooling degree days 1360 1295  
Since 1 June cooling degree days 35 36  
Growing Degree Days 26 (Base 50)    
Moisture  
Dew Point 61 °F    
Average Humidity 60    
Maximum Humidity 73    
Minimum Humidity 47    
Precipitation  
Precipitation 0.00 in 0.01 in 0.20 in (1972)
Month to date precipitation 0.10 0.02  
Year to date precipitation 3.72 9.52  
Snow  
Snow 0.00 in - - ()
Month to date snowfall 0.0  
Since 1 June snowfall 0.0  
Since 1 July snowfall 0.0  
Snow Depth 0.00 in    
Sea Level Pressure  
Sea Level Pressure 30.11 in    
Wind  
Wind Speed 17 mph (NE)    
Max Wind Speed 30 mph    
Max Gust Speed 36 mph    
Visibility 10 miles    
Events      
T = Trace of Precipitation, MM = Missing Value Source: NWS Daily Summary

Daily Weather History Graph

Daily Weather History Graph

Search for Another Location

Airport or City:

Trip Planner

Search our weather history database for the weather conditions in past years. The results will help you decide how hot, cold, wet, or windy it might be!

Date:

Astronomy

Jun. 03, 2012 Rise Set
Actual Time 5:43 AM HST 7:04 PM HST
Civil Twilight 5:19 AM HST 7:28 PM HST
Nautical Twilight 4:50 AM HST 7:58 PM HST
Astronomical Twilight 4:19 AM HST 8:28 PM HST
Moon 6:43 PM HST (6/3) 4:59 AM HST (6/3)
Length of Visible Light 14h 09m
Length of Day
13h 20m
Full, 100% of the Moon is Illuminated
Jun 3
Full
Jun 4
Full
Jun 11
Last Quarter
Jun 19
New
Jun 26
First Quarter

Hourly Weather History & Observations

Time (HST) Temp. Heat Index Dew Point Humidity Pressure Visibility Wind Dir Wind Speed Gust Speed Precip Events Conditions
12:54 AM 72.0 °F - 62.1 °F 71% 30.12 in 10.0 mi NE 11.5 mph - N/A   Partly Cloudy
1:54 AM 72.0 °F - 62.1 °F 71% 30.11 in 10.0 mi NE 11.5 mph - N/A   Mostly Cloudy
2:54 AM 73.0 °F - 61.0 °F 66% 30.10 in 10.0 mi NE 13.8 mph - N/A   Overcast
3:54 AM 72.0 °F - 61.0 °F 68% 30.09 in 10.0 mi NE 12.7 mph - N/A   Mostly Cloudy
4:54 AM 71.1 °F - 61.0 °F 70% 30.10 in 10.0 mi NE 12.7 mph - N/A   Scattered Clouds
5:54 AM 71.1 °F - 61.0 °F 70% 30.11 in 10.0 mi NE 10.4 mph - N/A   Partly Cloudy
6:54 AM 73.0 °F - 61.0 °F 66% 30.12 in 10.0 mi NE 9.2 mph - N/A   Partly Cloudy
7:54 AM 75.9 °F - 61.0 °F 60% 30.14 in 10.0 mi NE 16.1 mph 24.2 mph N/A   Scattered Clouds
8:54 AM 78.1 °F - 61.0 °F 56% 30.14 in 10.0 mi NE 15.0 mph 24.2 mph N/A   Partly Cloudy
9:54 AM 78.1 °F - 63.0 °F 60% 30.15 in 10.0 mi NE 21.9 mph - N/A   Scattered Clouds
10:54 AM 81.0 °F 81.9 °F 62.1 °F 52% 30.14 in 10.0 mi NE 21.9 mph 29.9 mph N/A   Scattered Clouds
11:54 AM 82.0 °F 82.7 °F 61.0 °F 49% 30.13 in 10.0 mi NE 26.5 mph 34.5 mph N/A   Clear
12:54 PM 82.0 °F 83.0 °F 62.1 °F 51% 30.10 in 10.0 mi NE 25.3 mph 32.2 mph N/A   Partly Cloudy
1:54 PM 82.0 °F 82.4 °F 60.1 °F 47% 30.09 in 10.0 mi NE 23.0 mph 32.2 mph N/A   Partly Cloudy
2:54 PM 81.0 °F 81.7 °F 61.0 °F 50% 30.07 in 10.0 mi NE 27.6 mph 34.5 mph N/A   Clear
3:54 PM 81.0 °F 81.9 °F 62.1 °F 52% 30.06 in 10.0 mi NE 25.3 mph - N/A   Clear
4:54 PM 79.0 °F - 63.0 °F 58% 30.06 in 10.0 mi NE 24.2 mph 29.9 mph N/A   Scattered Clouds
5:54 PM 77.0 °F - 60.1 °F 56% 30.06 in 10.0 mi ENE 23.0 mph 31.1 mph N/A   Scattered Clouds
6:54 PM 75.0 °F - 61.0 °F 62% 30.09 in 10.0 mi NE 20.7 mph 28.8 mph N/A   Clear
7:54 PM 73.9 °F - 61.0 °F 64% 30.10 in 10.0 mi ENE 12.7 mph 21.9 mph N/A   Partly Cloudy
8:54 PM 73.0 °F - 61.0 °F 66% 30.12 in 10.0 mi NE 9.2 mph 18.4 mph N/A   Mostly Cloudy
9:54 PM 73.0 °F - 61.0 °F 66% 30.12 in 10.0 mi NE 9.2 mph - N/A   Clear
10:54 PM 72.0 °F - 62.1 °F 71% 30.12 in 10.0 mi NE 10.4 mph - N/A   Clear
11:54 PM 72.0 °F - 62.1 °F 71% 30.09 in 10.0 mi NE 16.1 mph - N/A   Clear